Wind_Speed
8 7 8 8 8 9 10 10 10 10 11 11 12 12 13 13 13 13 14 14 15 15 16 15 16 15 16 16 17 17 17 17 17 17 17 18 18 18 18 19 19 19 20 20
8 8 9 9 9 9 10 11 11 11 11 12 13 13 13 13 13 14 14 15 15 15 16 16 16 16 16 17 18 17 18 18 19 19 18 18 18 19 19 20 20 21 21 22
10 10 10 10 10 11 11 11 12 12 12 13 13 13 14 15 15 15 15 15 15 15 16 16 17 17 17 18 18 19 19 19 19 20 20 20 20 21 21 21 21 22 22 23
12 12 12 10 12 12 12 12 13 12 13 14 14 15 16 16 16 16 16 16 17 17 17 18 18 18 19 19 20 20 21 21 21 22 22 22 22 22 22 23 23 24 24 25
14 14 13 12 13 14 14 13 14 14 14 15 16 17 17 18 18 18 18 18 18 19 19 19 19 20 20 20 21 22 22 22 23 23 23 23 23 23 24 24 25 25 26 26
16 15 14 13 14 15 15 15 15 16 16 16 17 17 18 18 18 19 19 20 20 20 20 21 21 21 22 22 22 22 23 23 24 24 24 24 25 25 26 27 27 27 28 28
17 17 15 14 15 16 16 16 16 17 17 18 18 19 19 20 20 20 21 21 22 22 22 22 22 23 23 23 23 23 24 24 25 25 25 26 26 27 28 28 28 29 30 30
20 19 16 16 17 17 18 18 18 19 19 20 20 21 21 21 22 22 22 22 23 23 23 23 23 23 23 24 24 25 25 25 25 26 27 27 28 29 29 30 30 31 31 32
22 21 20 20 19 19 20 20 20 21 21 22 22 22 23 23 23 23 24 24 24 24 24 24 24 25 25 26 26 26 26 27 27 28 29 30 30 31 31 32 32 32 33 34
24 23 23 22 22 22 22 22 22 23 23 24 24 24 25 25 26 25 25 25 26 26 26 26 26 27 27 28 28 29 29 29 30 30 31 32 32 33 33 34 34 35 35 36
26 25 25 25 25 24 24 24 24 25 25 26 26 26 27 27 26 26 27 27 27 28 28 28 28 28 28 29 29 30 30 31 31 32 32 33 34 35 35 36 36 37 38 39
26 26 27 26 26 26 26 26 27 27 27 27 27 27 28 28 29 29 29 29 29 29 29 29 29 29 29 30 30 31 31 32 33 33 34 35 35 36 37 38 38 39 40 41
27 27 27 27 27 27 27 27 28 29 29 28 28 28 29 29 30 30 30 30 30 30 30 31 31 31 31 31 32 32 33 33 34 34 35 36 37 37 39 40 41 41 42 43
28 29 28 28 28 28 28 28 28 29 29 29 29 29 29 29 30 30 30 30 30 30 31 31 32 32 32 33 33 34 34 35 35 36 37 37 39 40 41 42 43 44 44 46
30 30 30 29 29 29 29 29 29 29 30 30 30 30 30 30 30 31 30 31 31 31 32 32 33 33 34 34 35 35 35 36 37 38 39 40 41 42 43 44 45 45 46 47
31 31 31 31 31 31 30 31 31 31 31 31 31 31 31 31 31 31 32 32 32 33 34 34 35 35 36 36 36 37 37 38 39 40 40 41 42 43 44 45 46 47 47 48
32 32 32 33 32 32 32 32 32 32 32 32 31 31 31 31 32 32 33 33 34 35 35 36 36 36 37 38 38 39 39 40 41 42 42 43 43 44 45 46 46 47 48 49
32 32 33 33 34 34 34 34 33 33 33 33 33 33 33 33 33 33 34 34 35 35 36 36 36 37 38 38 39 40 41 41 42 43 43 44 45 45 46 46 47 48 49 50
33 33 33 34 34 34 34 34 34 34 34 34 34 34 34 34 34 34 34 35 35 35 36 37 37 38 39 39 40 41 42 42 43 43 44 45 46 46 47 48 49 50 51 52
34 34 34 34 34 34 35 35 35 35 34 34 34 34 34 34 34 35 35 36 36 37 37 37 37 38 40 40 41 41 42 43 44 44 45 46 47 48 49 50 51 52 52 52
34 35 35 35 35 35 35 35 35 35 34 35 35 35 35 35 36 36 36 36 36 37 37 38 39 39 40 41 41 42 43 43 44 45 46 47 48 48 49 50 51 51 51 52
34 34 34 34 35 34 34 34 34 34 34 34 34 35 35 36 36 36 36 36 37 38 38 39 39 40 41 41 42 43 44 44 45 46 47 48 49 49 49 50 50 51 51 52
34 34 34 34 34 34 35 35 35 34 34 34 34 35 35 35 35 36 36 37 38 39 39 39 40 40 41 42 42 43 44 45 46 46 47 48 49 49 49 50 51 51 52 52
35 35 35 35 35 35 35 35 34 35 35 35 35 35 36 36 36 37 38 38 39 39 40 40 40 41 42 43 43 44 45 45 46 46 46 47 48 49 50 50 51 51 52 52
35 35 35 35 35 35 35 36 36 36 36 36 36 36 36 36 37 38 39 39 40 40 41 41 42 42 43 44 44 45 45 46 46 46 46 47 48 49 50 51 51 51 52 52
35 35 35 35 36 36 37 37 37 38 38 38 37 38 38 38 38 39 39 40 41 41 42 42 43 43 43 44 44 45 45 45 46 47 47 48 48 49 49 50 50 51 51 51
35 36 36 36 37 37 37 38 38 39 39 39 39 39 40 40 40 40 41 41 42 42 42 42 43 43 43 43 44 44 45 45 46 47 48 48 48 48 48 49 49 50 50 50
Wind_Direction
241 244 239 239 239 241 241 243 241 238 238 238 240 241 245 246 246 249 251 252 252 253 253 256 259 262 264 264 265 267 268 270 273 273 277 280 281 281 282 284 286 288 289 292
242 248 243 238 245 248 248 248 246 245 243 244 245 246 246 247 250 253 256 257 258 258 257 258 261 263 264 266 268 271 272 272 274 275 277 279 281 282 282 284 286 287 288 290
248 248 249 248 250 253 255 254 251 250 250 251 251 251 251 253 256 258 259 260 261 260 260 262 264 265 266 266 268 271 273 274 275 275 277 279 281 281 281 283 284 285 287 290
255 253 251 253 258 258 259 259 259 258 256 257 255 253 255 257 259 260 259 260 262 263 263 264 265 266 267 268 270 271 273 275 276 276 277 278 281 282 282 283 284 286 288 289
260 258 257 257 261 262 262 262 263 262 258 257 257 257 258 258 260 261 261 262 264 266 266 265 267 268 269 270 271 272 273 275 276 276 278 279 280 281 282 283 285 286 288 290
263 263 261 261 263 264 265 266 265 262 260 259 259 261 261 262 263 263 264 264 265 267 268 267 268 269 270 271 271 272 273 274 276 276 277 278 279 280 282 284 284 285 287 289
262 264 264 266 267 268 268 267 265 264 263 262 262 263 264 265 265 266 267 268 268 269 270 270 270 270 272 272 272 273 274 275 276 277 277 279 280 281 282 284 285 286 287 289
260 262 265 264 266 267 268 268 267 264 264 264 265 266 266 266 268 269 270 270 270 270 270 270 271 271 272 273 273 273 275 276 277 278 279 281 282 283 283 285 286 287 287 289
259 261 263 263 265 267 268 269 268 265 265 266 267 267 267 268 269 270 271 271 270 270 270 271 271 271 271 272 273 274 275 277 278 279 280 281 282 283 283 284 286 287 288 289
260 261 263 263 263 265 268 269 269 268 267 268 268 268 268 269 271 272 273 272 271 270 270 271 271 272 272 272 274 274 275 277 278 280 281 282 282 283 283 284 286 288 289 290
261 262 262 262 264 266 268 269 270 271 270 269 270 270 270 271 272 273 273 273 272 271 270 271 272 273 273 274 275 276 277 278 279 280 282 282 283 284 284 285 287 288 289 290
262 262 262 262 262 265 267 269 271 273 274 273 272 272 272 272 273 273 273 273 273 271 270 271 272 273 274 275 276 277 277 278 280 280 281 283 283 284 285 286 287 288 289 290
262 262 261 262 262 264 267 268 270 272 273 274 274 274 273 273 274 274 274 274 273 272 271 272 273 274 275 276 277 278 278 279 280 281 282 283 284 285 286 287 288 289 290 290
261 262 261 261 263 265 267 268 270 273 274 275 274 274 274 274 274 274 275 274 273 272 272 272 274 275 276 277 278 279 280 281 282 283 283 284 285 286 287 288 288 289 290 290
261 261 261 262 263 265 267 269 270 273 274 274 274 273 273 274 275 276 276 276 274 274 274 274 275 276 277 278 278 280 281 282 283 284 285 286 286 287 288 289 289 290 290 290
260 261 261 263 264 266 267 269 270 272 274 274 274 274 275 276 276 276 277 277 276 276 276 276 277 277 278 279 280 281 282 283 284 285 287 287 288 289 289 290 290 291 291 291
260 260 261 263 264 265 267 268 270 272 273 274 274 275 276 277 276 276 278 279 278 277 277 278 278 278 279 279 280 281 283 284 286 287 287 288 289 290 290 291 291 292 292 293
259 260 262 263 264 265 266 268 270 272 273 274 274 275 276 276 276 276 277 279 279 278 279 279 278 278 279 280 281 282 284 285 286 287 288 288 290 291 291 291 292 293 294 294
259 261 262 264 265 266 267 269 270 272 273 274 274 274 275 275 275 276 276 278 279 280 280 279 279 280 281 282 284 284 285 286 287 288 289 289 290 290 291 292 293 294 294 295
258 260 262 263 264 265 267 268 270 271 273 273 273 274 275 275 276 276 278 279 280 281 281 281 281 281 282 283 284 285 285 286 287 288 289 290 290 291 292 292 294 295 295 295
259 260 261 262 264 264 265 267 268 270 272 273 274 274 275 276 277 278 279 280 280 281 282 282 283 283 284 285 286 287 287 288 289 289 289 289 290 292 293 293 294 295 296 296
260 261 261 261 262 263 265 266 268 270 271 273 274 275 276 276 277 278 279 280 280 281 282 284 284 285 285 286 287 287 287 288 289 289 290 290 291 292 293 294 295 296 296 297
260 260 260 260 261 262 265 267 269 271 272 273 274 275 276 277 278 278 279 280 281 282 283 285 286 286 286 287 288 289 289 290 290 291 291 291 292 293 294 295 296 297 297 298
260 260 261 262 263 265 266 268 270 271 272 274 275 275 276 277 278 279 280 281 283 284 285 286 287 287 288 288 289 290 290 291 292 292 293 293 293 294 295 296 297 297 298 299
260 261 261 262 264 265 267 269 270 272 272 273 274 275 276 277 278 279 281 282 283 285 286 287 287 288 289 289 289 290 291 291 292 293 294 294 295 296 296 297 298 299 299 299
259 260 261 263 265 267 269 270 271 272 273 273 274 275 277 278 279 280 282 283 284 285 286 287 288 288 289 290 290 290 291 292 292 293 294 295 297 298 298 299 299 300 300 300
259 260 262 263 265 267 269 270 270 271 272 273 273 275 277 278 280 281 282 283 284 285 287 288 288 289 289 290 291 291 291 292 293 294 295 297 298 299 299 300 300 300 301 301
Height
5840 5841 5842 5843 5844 5845 5846 5847 5849 5850 5851 5852 5853 5854 5855 5856 5857 5858 5858 5859 5859 5860 5860 5861 5861 5862 5862 5862 5862 5862 5862 5862 5863 5862 5862 5862 5861 5861 5860 5860 5859 5858 5856 5855
5839 5839 5840 5842 5842 5843 5844 5845 5846 5847 5849 5849 5850 5851 5852 5853 5854 5855 5855 5856 5856 5856 5857 5857 5857 5857 5858 5858 5858 5858 5858 5858 5858 5858 5857 5857 5856 5856 5855 5855 5854 5852 5851 5850
5838 5838 5838 5840 5841 5841 5842 5843 5844 5845 5846 5846 5847 5848 5848 5849 5850 5851 5851 5852 5852 5852 5852 5853 5853 5853 5853 5853 5853 5853 5853 5853 5853 5853 5853 5852 5851 5851 5850 5849 5848 5847 5846 5844
5835 5836 5837 5840 5838 5839 5839 5840 5840 5841 5842 5842 5843 5844 5845 5845 5846 5846 5847 5847 5848 5848 5848 5848 5848 5848 5848 5848 5848 5848 5848 5848 5848 5848 5847 5847 5846 5845 5844 5843 5842 5841 5840 5838
5831 5832 5833 5836 5835 5835 5836 5837 5837 5837 5838 5838 5839 5840 5840 5841 5841 5842 5842 5843 5843 5843 5843 5843 5843 5844 5844 5843 5843 5843 5843 5843 5842 5842 5841 5841 5840 5839 5838 5837 5836 5835 5833 5832
5828 5828 5830 5833 5832 5831 5833 5833 5834 5833 5834 5834 5834 5835 5836 5836 5836 5837 5837 5837 5838 5838 5838 5838 5838 5838 5838 5838 5837 5837 5837 5837 5836 5836 5835 5834 5834 5833 5831 5830 5829 5828 5826 5824
5824 5824 5826 5828 5827 5828 5830 5830 5829 5829 5829 5830 5830 5831 5831 5831 5831 5831 5832 5832 5832 5832 5832 5832 5832 5832 5832 5832 5832 5831 5831 5830 5830 5829 5828 5827 5827 5826 5824 5823 5822 5820 5819 5817
5819 5820 5824 5823 5823 5824 5824 5824 5824 5824 5824 5825 5826 5826 5826 5826 5826 5826 5826 5826 5826 5826 5826 5826 5826 5826 5826 5826 5825 5825 5824 5824 5823 5822 5821 5820 5819 5818 5817 5815 5814 5812 5810 5808
5815 5817 5818 5817 5818 5818 5818 5819 5819 5819 5819 5820 5820 5820 5820 5820 5820 5820 5819 5819 5819 5819 5819 5819 5819 5819 5819 5819 5818 5818 5817 5816 5816 5815 5814 5813 5811 5810 5808 5807 5805 5803 5801 5799
5808 5810 5811 5811 5812 5812 5812 5813 5813 5813 5813 5814 5814 5813 5813 5813 5813 5813 5812 5812 5812 5812 5812 5812 5812 5812 5812 5811 5811 5810 5809 5808 5808 5807 5805 5804 5803 5801 5800 5798 5796 5794 5792 5790
5801 5803 5804 5805 5805 5806 5806 5806 5806 5806 5806 5806 5806 5806 5806 5806 5806 5805 5805 5804 5804 5804 5804 5804 5804 5804 5803 5803 5803 5802 5801 5800 5799 5798 5796 5795 5793 5792 5790 5788 5786 5784 5781 5779
5794 5796 5796 5797 5798 5798 5799 5799 5799 5799 5799 5799 5799 5798 5798 5798 5797 5797 5797 5796 5796 5796 5795 5795 5795 5795 5795 5794 5794 5793 5792 5791 5790 5789 5787 5785 5784 5782 5779 5777 5775 5772 5770 5767
5786 5787 5788 5789 5790 5791 5791 5791 5791 5791 5791 5791 5791 5790 5790 5789 5789 5788 5788 5787 5787 5787 5787 5787 5786 5786 5786 5785 5784 5784 5783 5781 5780 5778 5777 5775 5773 5771 5769 5766 5763 5760 5757 5754
5778 5779 5780 5781 5781 5782 5783 5783 5783 5783 5783 5782 5782 5781 5781 5781 5780 5780 5779 5778 5778 5777 5777 5777 5777 5776 5776 5775 5775 5773 5772 5771 5769 5768 5766 5764 5762 5759 5757 5754 5751 5748 5744 5741
5769 5770 5771 5772 5773 5773 5774 5774 5774 5774 5774 5773 5773 5773 5772 5772 5771 5771 5770 5769 5769 5768 5768 5767 5767 5767 5766 5765 5764 5763 5762 5760 5758 5756 5754 5752 5749 5747 5744 5741 5738 5734 5731 5727
5760 5761 5762 5763 5764 5764 5765 5765 5765 5765 5765 5765 5764 5764 5763 5762 5762 5761 5761 5760 5759 5758 5758 5757 5757 5756 5755 5754 5753 5752 5750 5748 5746 5744 5742 5739 5736 5734 5731 5727 5724 5720 5716 5712
5750 5752 5752 5753 5754 5755 5755 5756 5756 5756 5756 5755 5755 5754 5754 5753 5753 5752 5751 5750 5749 5748 5747 5746 5746 5745 5744 5743 5742 5740 5738 5736 5734 5732 5729 5726 5723 5720 5717 5713 5710 5706 5702 5698
5740 5741 5743 5744 5744 5745 5746 5746 5746 5746 5746 5745 5745 5745 5744 5743 5743 5742 5741 5740 5738 5737 5736 5735 5734 5733 5732 5731 5730 5728 5726 5724 5721 5719 5716 5713 5710 5707 5703 5699 5696 5692 5688 5683
5730 5731 5733 5733 5734 5735 5735 5736 5736 5736 5735 5735 5735 5734 5734 5733 5732 5731 5730 5729 5728 5727 5725 5724 5723 5722 5721 5719 5717 5716 5713 5711 5708 5705 5703 5699 5696 5693 5689 5685 5681 5677 5673 5668
5720 5721 5722 5723 5724 5724 5725 5725 5725 5725 5725 5724 5724 5724 5723 5722 5722 5721 5720 5719 5717 5716 5715 5713 5712 5710 5709 5707 5705 5703 5700 5698 5695 5692 5689 5686 5682 5679 5675 5671 5666 5662 5657 5653
5709 5711 5711 5712 5713 5714 5714 5714 5715 5715 5714 5714 5714 5713 5713 5712 5711 5710 5709 5708 5707 5705 5703 5702 5700 5698 5696 5694 5692 5689 5687 5684 5681 5678 5675 5672 5668 5664 5660 5656 5651 5647 5642 5638
5699 5700 5701 5702 5703 5703 5704 5704 5704 5704 5704 5704 5703 5703 5702 5701 5700 5699 5698 5697 5695 5694 5692 5690 5688 5686 5684 5682 5679 5677 5674 5671 5668 5664 5661 5657 5654 5650 5645 5641 5637 5632 5627 5622
5688 5689 5690 5691 5692 5693 5693 5693 5694 5694 5693 5693 5693 5692 5691 5690 5689 5688 5687 5686 5684 5682 5680 5678 5676 5673 5671 5669 5666 5663 5660 5657 5654 5650 5646 5643 5639 5635 5631 5626 5622 5617 5612 5607
5678 5679 5680 5681 5681 5682 5683 5683 5683 5683 5683 5682 5682 5681 5680 5679 5678 5677 5675 5674 5672 5670 5668 5666 5663 5661 5658 5656 5653 5650 5646 5643 5639 5636 5632 5628 5624 5620 5616 5612 5607 5602 5597 5592
5666 5668 5669 5670 5670 5671 5671 5672 5672 5672 5671 5671 5670 5669 5669 5668 5667 5665 5663 5662 5660 5658 5655 5653 5650 5648 5645 5642 5639 5636 5633 5629 5626 5622 5618 5614 5610 5606 5601 5597 5592 5587 5582 5577
5655 5656 5657 5658 5659 5659 5660 5660 5660 5660 5660 5659 5659 5658 5657 5655 5654 5653 5651 5649 5647 5645 5642 5640 5637 5634 5631 5628 5625 5622 5619 5615 5612 5608 5604 5600 5596 5592 5587 5582 5577 5572 5567 5562
5644 5645 5646 5647 5647 5648 5648 5648 5648 5648 5647 5647 5646 5645 5644 5643 5642 5640 5638 5636 5634 5632 5629 5627 5624 5621 5618 5615 5612 5609 5605 5602 5598 5594 5590 5586 5582 5577 5573 5568 5563 5558 5552 5547